• In Hungary
  • List of Countries
  • For 7 days
  • Water Temperature
  • Satellite Maps
  • Weather Map
  • News
  • Weather Widgets
  • user-avatar
    Login

    Hourly Weather Horodnytsya

    Today, 17 October, Tuesday

    Time Temperature Precipitation Wind Pressure Humidity
    00:00 +13°C° 0 mm 4 mps 748 mmHg 82%
    01:00 +13°C° 0 mm 4 mps 748 mmHg 84%
    02:00 +12°C° 0 mm 4 mps 748 mmHg 85%
    03:00 +12°C° 0 mm 4 mps 748 mmHg 87%
    04:00 +12°C° 0 mm 4 mps 748 mmHg 89%
    05:00 +12°C° 0 mm 4 mps 748 mmHg 91%
    06:00 +12°C° 0 mm 4 mps 748 mmHg 89%
    07:00 +12°C° 0 mm 4 mps 748 mmHg 88%
    08:00 +13°C° 0 mm 4 mps 748 mmHg 86%
    09:00 +14°C° 0 mm 4 mps 749 mmHg 78%
    10:00 +17°C° 0 mm 4 mps 749 mmHg 71%
    11:00 +19°C° 0 mm 5 mps 749 mmHg 64%
    12:00 +20°C° 0 mm 4 mps 749 mmHg 61%
    13:00 +21°C° 0 mm 4 mps 749 mmHg 58%
    14:00 +21°C° 0 mm 4 mps 749 mmHg 55%
    15:00 +20°C° 0 mm 4 mps 749 mmHg 60%
    16:00 +19°C° 0 mm 3 mps 749 mmHg 65%
    17:00 +18°C° 0 mm 2 mps 749 mmHg 70%
    18:00 +17°C° 0 mm 2 mps 749 mmHg 75%
    19:00 +16°C° 0 mm 2 mps 749 mmHg 79%
    20:00 +15°C° 0 mm 1 mps 749 mmHg 83%
    21:00 +15°C° 0 mm 1 mps 749 mmHg 85%
    22:00 +14°C° 0 mm 1 mps 749 mmHg 86%
    23:00 +14°C° 0 mm 1 mps 749 mmHg 87%

    Tomorrow, 18 October, Wednesday

    Time Temperature Precipitation Wind Pressure Humidity
    00:00 +14°C° 0 mm 1 mps 749 mmHg 88%
    01:00 +13°C° 0 mm 1 mps 749 mmHg 88%
    02:00 +13°C° 0 mm 1 mps 749 mmHg 88%
    03:00 +13°C° 0 mm 1 mps 748 mmHg 88%
    04:00 +13°C° 0 mm 1 mps 748 mmHg 89%
    05:00 +12°C° 0 mm 2 mps 748 mmHg 89%
    06:00 +13°C° 0 mm 2 mps 748 mmHg 86%
    07:00 +14°C° 0 mm 2 mps 748 mmHg 84%
    08:00 +14°C° 0 mm 2 mps 748 mmHg 82%
    09:00 +16°C° 0 mm 2 mps 748 mmHg 73%
    10:00 +18°C° 0 mm 3 mps 747 mmHg 64%
    11:00 +20°C° 0 mm 3 mps 747 mmHg 55%
    12:00 +21°C° 0 mm 3 mps 747 mmHg 52%
    13:00 +22°C° 0 mm 4 mps 747 mmHg 48%
    14:00 +23°C° 0 mm 4 mps 746 mmHg 45%
    15:00 +22°C° 0 mm 3 mps 746 mmHg 49%
    16:00 +20°C° 0 mm 3 mps 745 mmHg 54%
    17:00 +19°C° 0 mm 2 mps 745 mmHg 58%
    18:00 +18°C° 0 mm 2 mps 745 mmHg 60%
    19:00 +17°C° 0 mm 2 mps 745 mmHg 62%
    20:00 +16°C° 0 mm 2 mps 745 mmHg 64%
    21:00 +16°C° 0 mm 2 mps 745 mmHg 65%
    22:00 +16°C° 0 mm 2 mps 745 mmHg 66%
    23:00 +15°C° 0 mm 2 mps 745 mmHg 67%

    Day after tomorrow, 19 October, Thursday

    Time Temperature Precipitation Wind Pressure Humidity
    00:00 +15°C° 0 mm 2 mps 745 mmHg 68%
    01:00 +14°C° 0 mm 1 mps 745 mmHg 68%
    02:00 +14°C° 0 mm 1 mps 745 mmHg 69%
    03:00 +14°C° 0 mm 1 mps 744 mmHg 70%
    04:00 +14°C° 0 mm 1 mps 744 mmHg 71%
    05:00 +13°C° 0 mm 1 mps 744 mmHg 71%
    06:00 +14°C° 0 mm 1 mps 744 mmHg 70%
    07:00 +14°C° 0 mm 1 mps 744 mmHg 69%
    08:00 +15°C° 0 mm 1 mps 744 mmHg 67%
    09:00 +18°C° 0 mm 1 mps 745 mmHg 61%
    10:00 +19°C° 0 mm 2 mps 745 mmHg 55%
    11:00 +20°C° 0 mm 2 mps 745 mmHg 49%
    12:00 +21°C° 0 mm 2 mps 744 mmHg 47%
    13:00 +23°C° 0 mm 2 mps 744 mmHg 45%
    14:00 +24°C° 0 mm 3 mps 744 mmHg 43%
    15:00 +21°C° 0 mm 2 mps 744 mmHg 48%
    16:00 +20°C° 0 mm 2 mps 744 mmHg 52%
    17:00 +19°C° 0 mm 2 mps 743 mmHg 57%
    18:00 +18°C° 0 mm 2 mps 743 mmHg 59%
    19:00 +17°C° 0 mm 2 mps 744 mmHg 61%
    20:00 +16°C° 0 mm 2 mps 744 mmHg 63%
    21:00 +16°C° 0 mm 2 mps 744 mmHg 64%
    22:00 +16°C° 0 mm 1 mps 744 mmHg 66%
    23:00 +15°C° 0 mm 1 mps 744 mmHg 67%

    20 October, Friday

    Time Temperature Precipitation Wind Pressure Humidity
    00:00 +15°C° 0 mm 1 mps 744 mmHg 68%
    01:00 +14°C° 0 mm 1 mps 744 mmHg 69%
    02:00 +14°C° 0 mm 1 mps 744 mmHg 70%
    03:00 +14°C° 0 mm 1 mps 744 mmHg 71%
    04:00 +13°C° 0 mm 1 mps 744 mmHg 72%
    05:00 +13°C° 0 mm 1 mps 744 mmHg 73%
    06:00 +14°C° 0 mm 1 mps 744 mmHg 72%
    07:00 +14°C° 0 mm 1 mps 744 mmHg 70%
    08:00 +15°C° 0 mm 1 mps 744 mmHg 69%
    09:00 +16°C° 0 mm 1 mps 744 mmHg 63%
    10:00 +19°C° 0 mm 1 mps 745 mmHg 56%
    11:00 +21°C° 0 mm 1 mps 745 mmHg 50%
    12:00 +21°C° 0 mm 2 mps 745 mmHg 47%
    13:00 +23°C° 0 mm 2 mps 745 mmHg 44%
    14:00 +22°C° 0 mm 3 mps 744 mmHg 41%
    15:00 +21°C° 0 mm 2 mps 744 mmHg 45%
    16:00 +19°C° 0 mm 2 mps 744 mmHg 49%
    17:00 +18°C° 0 mm 2 mps 744 mmHg 54%
    18:00 +17°C° 0 mm 2 mps 745 mmHg 57%
    19:00 +16°C° 0 mm 2 mps 745 mmHg 61%
    20:00 +15°C° 0 mm 2 mps 745 mmHg 64%
    21:00 +15°C° 0 mm 2 mps 745 mmHg 68%
    22:00 +14°C° 0 mm 1 mps 745 mmHg 71%
    23:00 +14°C° 0 mm 1 mps 745 mmHg 74%

    21 October, Saturday

    Time Temperature Precipitation Wind Pressure Humidity
    00:00 +14°C° 0 mm 1 mps 745 mmHg 77%
    01:00 +13°C° 0 mm 1 mps 745 mmHg 79%
    02:00 +13°C° 0 mm 1 mps 745 mmHg 82%
    03:00 +13°C° 0 mm 1 mps 745 mmHg 83%
    04:00 +12°C° 0 mm 1 mps 745 mmHg 84%
    05:00 +12°C° 0 mm 1 mps 745 mmHg 86%
    06:00 +12°C° 0 mm 2 mps 745 mmHg 83%
    07:00 +13°C° 0 mm 2 mps 745 mmHg 81%
    08:00 +13°C° 0 mm 2 mps 745 mmHg 79%
    09:00 +15°C° 0 mm 2 mps 745 mmHg 70%
    10:00 +17°C° 0 mm 3 mps 745 mmHg 62%
    11:00 +19°C° 0 mm 3 mps 745 mmHg 53%
    12:00 +20°C° 0 mm 4 mps 744 mmHg 50%
    13:00 +20°C° 0 mm 4 mps 744 mmHg 47%
    14:00 +21°C° 0 mm 4 mps 743 mmHg 44%
    15:00 +20°C° 0 mm 4 mps 743 mmHg 47%
    16:00 +19°C° 0 mm 4 mps 743 mmHg 50%
    17:00 +18°C° 0 mm 3 mps 743 mmHg 54%
    18:00 +17°C° 0.1 mm 3 mps 743 mmHg 56%
    19:00 +17°C° 0.1 mm 3 mps 743 mmHg 58%
    20:00 +16°C° 0.1 mm 3 mps 743 mmHg 60%
    21:00 +16°C° 0.1 mm 3 mps 743 mmHg 62%
    22:00 +16°C° 0.1 mm 3 mps 743 mmHg 65%
    23:00 +15°C° 0.1 mm 2 mps 743 mmHg 67%

    22 October, Sunday

    Time Temperature Precipitation Wind Pressure Humidity
    00:00 +15°C° 0 mm 2 mps 743 mmHg 68%
    01:00 +14°C° 0 mm 2 mps 743 mmHg 70%
    02:00 +14°C° 0 mm 2 mps 743 mmHg 72%
    03:00 +13°C° 0 mm 2 mps 743 mmHg 74%
    04:00 +13°C° 0 mm 2 mps 743 mmHg 76%
    05:00 +12°C° 0 mm 2 mps 742 mmHg 78%
    06:00 +13°C° 0 mm 2 mps 742 mmHg 76%
    07:00 +13°C° 0 mm 2 mps 743 mmHg 75%
    08:00 +13°C° 0 mm 3 mps 743 mmHg 73%
    09:00 +14°C° 0 mm 3 mps 743 mmHg 67%
    10:00 +17°C° 0 mm 3 mps 743 mmHg 61%
    11:00 +19°C° 0 mm 3 mps 743 mmHg 55%
    12:00 +20°C° 0 mm 4 mps 742 mmHg 52%
    13:00 +20°C° 0 mm 4 mps 742 mmHg 50%
    14:00 +21°C° 0 mm 4 mps 742 mmHg 47%
    15:00 +20°C° 0 mm 3 mps 742 mmHg 51%
    16:00 +19°C° 0 mm 3 mps 741 mmHg 54%
    17:00 +18°C° 0 mm 2 mps 741 mmHg 57%
    18:00 +17°C° 0 mm 2 mps 741 mmHg 59%
    19:00 +17°C° 0 mm 2 mps 741 mmHg 61%
    20:00 +16°C° 0 mm 1 mps 741 mmHg 63%
    21:00 +16°C° 0 mm 1 mps 741 mmHg 63%
    22:00 +15°C° 0 mm 1 mps 741 mmHg 64%
    23:00 +15°C° 0 mm 2 mps 741 mmHg 65%
    Show more